Location: Astronomy Club of Akron Observatory
(40.9700°N, 81.5606°W)
Time: 20:23:15
(UTC-04:00)

ISS - Pass Details

Date: 14 July 2018
Orbit: 402 x 408 km, 51.6° (Epoch: 17 July)

Event Time Altitude Azimuth Distance (km) Brightness Sun altitude
Exits shadow 02:50:56 16° 322° (NW) 1,147 -1.2 -24.7°
Maximum altitude 02:51:51 18° 343° (NNW) 1,080 -1.1 -24.7°
Drops below altitude 10° 02:54:12 10° 29° (NNE) 1,471 0.0 -24.5°
Sets 02:56:46 0° 50° (NE) 2,334 1.0 -24.3°
